| time (UTC) | temp F | wind direction | speed knots | gust knots | rain 1hr in | rain 24hr in | rain mn in | humidity % | barometer mb |
| 20260504220830 | 75 | 191 | 1.7 | 12.2 | 0.00 | 0.00 | 0.00 | 24 | 1008.9 |
| 20260504220047 | 75 | 277 | 3.5 | 12.2 | 0.00 | 0.00 | 0.00 | 24 | 1008.9 |
| 20260504215744 | 76 | 226 | 4.3 | 12.2 | 0.00 | 0.00 | 0.00 | 24 | 1008.9 |
| 20260504215448 | 76 | 186 | 3.5 | 12.2 | 0.00 | 0.00 | 0.00 | 25 | 1008.8 |
| 20260504215148 | 76 | 209 | 3.5 | 11.3 | 0.00 | 0.00 | 0.00 | 25 | 1008.9 |
| 20260504214847 | 76 | 188 | 2.6 | 8.7 | 0.00 | 0.00 | 0.00 | 25 | 1008.8 |
| 20260504214548 | 76 | 192 | 2.6 | 8.7 | 0.00 | 0.00 | 0.00 | 24 | 1008.8 |
| 20260504214243 | 76 | 203 | 2.6 | 8.7 | 0.00 | 0.00 | 0.00 | 24 | 1008.8 |
| 20260504213110 | 76 | 236 | 3.5 | 12.2 | 0.00 | 0.00 | 0.00 | 26 | 1008.6 |
| 20260504212804 | 76 | 211 | 3.5 | 12.2 | 0.00 | 0.00 | 0.00 | 25 | 1008.7 |
| 20260504212457 | 76 | 221 | 3.5 | 12.2 | 0.00 | 0.00 | 0.00 | 24 | 1008.8 |
| 20260504212155 | 76 | 219 | 3.5 | 12.2 | 0.00 | 0.00 | 0.00 | 25 | 1008.9 |
| 20260504211847 | 76 | 157 | 2.6 | 12.2 | 0.00 | 0.00 | 0.00 | 22 | 1008.8 |
| 20260504211537 | 76 | 210 | 2.6 | 12.2 | 0.00 | 0.00 | 0.00 | 23 | 1008.6 |
| 20260504211224 | 76 | 223 | 2.6 | 12.2 | 0.00 | 0.00 | 0.00 | 23 | 1008.8 |
| 20260504210920 | 76 | 178 | 2.6 | 8.7 | 0.00 | 0.00 | 0.00 | 23 | 1008.7 |
| 20260504210609 | 76 | 229 | 3.5 | 8.7 | 0.00 | 0.00 | 0.00 | 23 | 1008.8 |
| 20260504210306 | 76 | 219 | 3.5 | 7.8 | 0.00 | 0.00 | 0.00 | 21 | 1008.7 |
| 20260504210004 | 76 | 192 | 3.5 | 7.8 | 0.00 | 0.00 | 0.00 | 23 | 1008.8 |
| 20260504205702 | 77 | 178 | 3.5 | 9.6 | 0.00 | 0.00 | 0.00 | 23 | 1008.8 |
| 20260504205348 | 77 | 171 | 2.6 | 9.6 | 0.00 | 0.00 | 0.00 | 23 | 1008.8 |
| 20260504205049 | 77 | 233 | 2.6 | 9.6 | 0.00 | 0.00 | 0.00 | 24 | 1008.9 |
| 20260504204739 | 77 | 225 | 3.5 | 9.6 | 0.00 | 0.00 | 0.00 | 22 | 1008.9 |
| 20260504204433 | 77 | 296 | 2.6 | 9.6 | 0.00 | 0.00 | 0.00 | 23 | 1008.8 |
| 20260504204125 | 76 | 127 | 3.5 | 9.6 | 0.00 | 0.00 | 0.00 | 22 | 1008.8 |
| 20260504203827 | 76 | 153 | 2.6 | 11.3 | 0.00 | 0.00 | 0.00 | 23 | 1008.8 |
| 20260504203513 | 76 | 233 | 3.5 | 11.3 | 0.00 | 0.00 | 0.00 | 21 | 1008.8 |
| 20260504203209 | 76 | 224 | 2.6 | 11.3 | 0.00 | 0.00 | 0.00 | 23 | 1008.9 |
| 20260504202905 | 76 | 197 | 2.6 | 11.3 | 0.00 | 0.00 | 0.00 | 21 | 1009.0 |
| 20260504202604 | 76 | 243 | 2.6 | 11.3 | 0.00 | 0.00 | 0.00 | 21 | 1009.0 |
| 20260504202257 | 76 | 264 | 2.6 | 11.3 | 0.00 | 0.00 | 0.00 | 22 | 1009.0 |
| 20260504202000 | 76 | 320 | 2.6 | 11.3 | 0.00 | 0.00 | 0.00 | 22 | 1009.1 |
| 20260504201648 | 76 | 181 | 2.6 | 11.3 | 0.00 | 0.00 | 0.00 | 23 | 1009.1 |
| 20260504201338 | 76 | 180 | 3.5 | 11.3 | 0.00 | 0.00 | 0.00 | 23 | 1009.1 |
| 20260504201026 | 76 | 179 | 3.5 | 11.3 | 0.00 | 0.00 | 0.00 | 21 | 1009.2 |
| 20260504200716 | 76 | 171 | 3.5 | 14.8 | 0.00 | 0.00 | 0.00 | 21 | 1009.3 |
| 20260504200418 | 76 | 173 | 3.5 | 14.8 | 0.00 | 0.00 | 0.00 | 22 | 1009.3 |
| 20260504200110 | 76 | 197 | 3.5 | 14.8 | 0.00 | 0.00 | 0.00 | 22 | 1009.4 |
| 20260504195805 | 76 | 237 | 3.5 | 14.8 | 0.00 | 0.00 | 0.00 | 21 | 1009.4 |
| 20260504195055 | 76 | 199 | 3.5 | 14.8 | 0.00 | 0.00 | 0.00 | 22 | 1009.5 |
| 20260504194752 | 76 | 259 | 2.6 | 13.0 | 0.00 | 0.00 | 0.00 | 22 | 1009.5 |
| 20260504194021 | 76 | 185 | 3.5 | 13.0 | 0.00 | 0.00 | 0.00 | 22 | 1009.6 |
| 20260504193258 | 76 | 195 | 3.5 | 11.3 | 0.00 | 0.00 | 0.00 | 23 | 1009.8 |
| 20260504193002 | 76 | 220 | 3.5 | 11.3 | 0.00 | 0.00 | 0.00 | 24 | 1009.9 |
| 20260504192657 | 76 | 281 | 3.5 | 11.3 | 0.00 | 0.00 | 0.00 | 23 | 1009.9 |
| 20260504191940 | 76 | 185 | 3.5 | 12.2 | 0.00 | 0.00 | 0.00 | 24 | 1010.0 |
| 20260504191219 | 75 | 147 | 4.3 | 13.0 | 0.00 | 0.00 | 0.00 | 25 | 1010.2 |
| 20260504190906 | 76 | 267 | 4.3 | 13.0 | 0.00 | 0.00 | 0.00 | 23 | 1010.2 |
| 20260504190601 | 76 | 179 | 5.2 | 13.0 | 0.00 | 0.00 | 0.00 | 24 | 1010.2 |
| 20260504185842 | 76 | 286 | 3.5 | 13.0 | 0.00 | 0.00 | 0.00 | 24 | 1010.4 |
| 20260504184707 | 76 | 249 | 2.6 | 11.3 | 0.00 | 0.00 | 0.00 | 24 | 1010.6 |
| 20260504184401 | 76 | 9 | 2.6 | 11.3 | 0.00 | 0.00 | 0.00 | 27 | 1010.6 |
| 20260504183640 | 75 | 195 | 3.5 | 12.2 | 0.00 | 0.00 | 0.00 | 24 | 1010.8 |
| 20260504183329 | 75 | 178 | 3.5 | 12.2 | 0.00 | 0.00 | 0.00 | 28 | 1010.9 |
| 20260504183017 | 75 | 282 | 3.5 | 12.2 | 0.00 | 0.00 | 0.00 | 24 | 1010.8 |
| 20260504182716 | 75 | 233 | 4.3 | 12.2 | 0.00 | 0.00 | 0.00 | 25 | 1010.9 |
| 20260504182405 | 74 | 283 | 4.3 | 12.2 | 0.00 | 0.00 | 0.00 | 25 | 1010.9 |
| 20260504182109 | 74 | 225 | 4.3 | 12.2 | 0.00 | 0.00 | 0.00 | 23 | 1011.2 |
| 20260504181754 | 75 | 218 | 3.5 | 12.2 | 0.00 | 0.00 | 0.00 | 26 | 1011.2 |
| 20260504180607 | 74 | 234 | 4.3 | 11.3 | 0.00 | 0.00 | 0.00 | 24 | 1011.4 |
| 20260504174959 | 74 | 294 | 3.5 | 13.0 | 0.00 | 0.00 | 0.00 | 25 | 1011.6 |
| 20260504174652 | 74 | 170 | 3.5 | 13.0 | 0.00 | 0.00 | 0.00 | 27 | 1011.5 |
| 20260504174341 | 74 | 271 | 3.5 | 13.0 | 0.00 | 0.00 | 0.00 | 25 | 1011.6 |
| 20260504174030 | 74 | 265 | 3.5 | 13.0 | 0.00 | 0.00 | 0.00 | 25 | 1011.7 |
| 20260504173725 | 73 | 229 | 3.5 | 10.4 | 0.00 | 0.00 | 0.00 | 26 | 1011.7 |
| 20260504173003 | 73 | 279 | 2.6 | 10.4 | 0.00 | 0.00 | 0.00 | 25 | 1011.7 |
| 20260504172702 | 73 | 190 | 2.6 | 10.4 | 0.00 | 0.00 | 0.00 | 26 | 1011.7 |
| 20260504172355 | 73 | 178 | 1.7 | 9.6 | 0.00 | 0.00 | 0.00 | 27 | 1011.8 |
| 20260504171635 | 73 | 244 | 2.6 | 9.6 | 0.00 | 0.00 | 0.00 | 26 | 1011.9 |
| 20260504170908 | 73 | 274 | 3.5 | 9.6 | 0.00 | 0.00 | 0.00 | 27 | 1012.0 |
| 20260504160407 | 70 | 261 | 4.3 | 12.2 | 0.00 | 0.00 | 0.00 | 27 | 1013.0 |
| 20260504151146 | 66 | 336 | 3.5 | 9.6 | 0.00 | 0.00 | 0.00 | 30 | 1013.9 |
| 20260504150844 | 65 | 277 | 2.6 | 10.4 | 0.00 | 0.00 | 0.00 | 30 | 1014.0 |
| 20260504141125 | 59 | 97 | 0.9 | 2.6 | 0.00 | 0.00 | 0.00 | 38 | 1014.0 |
| 20260504140818 | 58 | 276 | 0.0 | 2.6 | 0.00 | 0.00 | 0.00 | 36 | 1014.2 |
| 20260504140511 | 58 | 190 | 0.0 | 2.6 | 0.00 | 0.00 | 0.00 | 36 | 1014.2 |
| 20260504140210 | 58 | 203 | 0.0 | 2.6 | 0.00 | 0.00 | 0.00 | 37 | 1014.3 |
| 20260504130646 | 54 | 333 | 0.9 | 5.2 | 0.00 | 0.00 | 0.00 | 39 | 1014.7 |
| 20260504130347 | 54 | 278 | 0.9 | 5.2 | 0.00 | 0.00 | 0.00 | 41 | 1014.9 |
| 20260504120251 | 48 | 248 | 0.0 | 0.0 | 0.00 | 0.00 | 0.00 | 50 | 1015.2 |
| 20260504110510 | 39 | 268 | 0.0 | 0.0 | 0.00 | 0.00 | 0.00 | 65 | 1015.0 |
| 20260504110211 | 38 | 268 | 0.0 | 0.0 | 0.00 | 0.00 | 0.00 | 65 | 1015.0 |
| 20260504100551 | 36 | 268 | 0.0 | 0.0 | 0.00 | 0.00 | 0.00 | 65 | 1015.2 |
| 20260504100248 | 36 | 268 | 0.0 | 0.0 | 0.00 | 0.00 | 0.00 | 65 | 1015.3 |
| 20260504081911 | 38 | 251 | 0.0 | 0.9 | 0.00 | 0.00 | 0.00 | 62 | 1015.5 |
| 20260504081604 | 38 | 251 | 0.0 | 0.9 | 0.00 | 0.00 | 0.00 | 62 | 1015.7 |
| 20260504081258 | 38 | 248 | 0.0 | 0.0 | 0.00 | 0.00 | 0.00 | 62 | 1015.6 |
| 20260504080948 | 38 | 248 | 0.0 | 0.0 | 0.00 | 0.00 | 0.00 | 62 | 1015.7 |
| 20260504080652 | 38 | 248 | 0.0 | 0.0 | 0.00 | 0.00 | 0.00 | 62 | 1015.6 |
| 20260504060159 | 40 | 264 | 0.0 | 0.0 | 0.00 | 0.00 | 0.00 | 59 | 1015.7 |
| 20260504050105 | 41 | 243 | 0.0 | 0.0 | 0.00 | 0.00 | 0.00 | 56 | 1015.6 |
| 20260504045800 | 41 | 243 | 0.0 | 0.0 | 0.00 | 0.00 | 0.00 | 56 | 1015.7 |
| 20260504045446 | 41 | 243 | 0.0 | 0.0 | 0.00 | 0.00 | 0.00 | 56 | 1015.7 |
| 20260504045137 | 42 | 243 | 0.0 | 0.0 | 0.00 | 0.00 | 0.00 | 56 | 1015.7 |
| 20260504044840 | 42 | 243 | 0.0 | 0.0 | 0.00 | 0.00 | 0.00 | 55 | 1015.8 |
| 20260504044527 | 42 | 243 | 0.0 | 0.0 | 0.00 | 0.00 | 0.00 | 55 | 1015.7 |
| 20260504044221 | 42 | 243 | 0.0 | 0.0 | 0.00 | 0.00 | 0.00 | 55 | 1015.9 |
| 20260504043907 | 42 | 243 | 0.0 | 0.0 | 0.00 | 0.00 | 0.00 | 55 | 1015.8 |
| 20260504043605 | 42 | 243 | 0.0 | 0.0 | 0.00 | 0.00 | 0.00 | 55 | 1015.9 |
| 20260504043258 | 42 | 240 | 0.0 | 0.0 | 0.00 | 0.00 | 0.00 | 55 | 1015.8 |
| 20260504042959 | 42 | 240 | 0.0 | 0.0 | 0.00 | 0.00 | 0.00 | 55 | 1015.8 |
| 20260504042232 | 42 | 240 | 0.0 | 0.0 | 0.00 | 0.00 | 0.00 | 54 | 1015.8 |
| 20260504041929 | 42 | 240 | 0.0 | 0.0 | 0.00 | 0.00 | 0.00 | 54 | 1015.7 |
| 20260504041616 | 42 | 205 | 0.0 | 0.0 | 0.00 | 0.00 | 0.00 | 54 | 1015.8 |
| 20260504041303 | 43 | 163 | 0.0 | 0.0 | 0.00 | 0.00 | 0.00 | 54 | 1015.7 |
| 20260504040553 | 43 | 163 | 0.0 | 0.0 | 0.00 | 0.00 | 0.00 | 54 | 1015.7 |
| 20260504040241 | 43 | 163 | 0.0 | 0.0 | 0.00 | 0.00 | 0.00 | 54 | 1015.8 |
| 20260504035943 | 43 | 163 | 0.0 | 0.0 | 0.00 | 0.00 | 0.00 | 54 | 1015.8 |
| 20260504035639 | 43 | 164 | 0.0 | 0.0 | 0.00 | 0.00 | 0.00 | 53 | 1015.8 |
| 20260504035339 | 43 | 164 | 0.0 | 0.0 | 0.00 | 0.00 | 0.00 | 53 | 1015.9 |
| 20260504035039 | 43 | 160 | 0.0 | 0.0 | 0.00 | 0.00 | 0.00 | 53 | 1015.8 |
| 20260504034735 | 43 | 160 | 0.0 | 0.0 | 0.00 | 0.00 | 0.00 | 53 | 1015.7 |
| 20260504034423 | 43 | 160 | 0.0 | 0.0 | 0.00 | 0.00 | 0.00 | 52 | 1015.8 |
| 20260504034126 | 44 | 150 | 0.0 | 0.0 | 0.00 | 0.00 | 0.00 | 51 | 1015.7 |
| 20260504033813 | 44 | 147 | 0.0 | 0.0 | 0.00 | 0.00 | 0.00 | 52 | 1015.6 |
| 20260504033512 | 44 | 147 | 0.0 | 0.0 | 0.00 | 0.00 | 0.00 | 52 | 1015.7 |
| 20260504033207 | 44 | 147 | 0.0 | 0.0 | 0.00 | 0.00 | 0.00 | 51 | 1015.5 |
| 20260504032449 | 44 | 147 | 0.0 | 0.0 | 0.00 | 0.00 | 0.00 | 51 | 1015.5 |
| 20260504032142 | 44 | 153 | 0.0 | 0.0 | 0.00 | 0.00 | 0.00 | 51 | 1015.4 |
| 20260504031832 | 44 | 261 | 0.0 | 0.0 | 0.00 | 0.00 | 0.00 | 50 | 1015.4 |
| 20260504031114 | 45 | 261 | 0.0 | 0.0 | 0.00 | 0.00 | 0.00 | 51 | 1015.3 |
| 20260504030808 | 45 | 261 | 0.0 | 0.0 | 0.00 | 0.00 | 0.00 | 51 | 1015.3 |
| 20260504030503 | 45 | 261 | 0.0 | 0.0 | 0.00 | 0.00 | 0.00 | 51 | 1015.3 |
| 20260504030154 | 45 | 261 | 0.0 | 0.0 | 0.00 | 0.00 | 0.00 | 51 | 1015.1 |
| 20260504025418 | 45 | 261 | 0.0 | 0.0 | 0.00 | 0.00 | 0.00 | 50 | 1015.1 |
| 20260504024237 | 46 | 261 | 0.0 | 0.0 | 0.00 | 0.00 | 0.00 | 49 | 1015.2 |
| 20260504023938 | 46 | 261 | 0.0 | 0.0 | 0.00 | 0.00 | 0.00 | 49 | 1015.2 |
| 20260504023642 | 46 | 260 | 0.0 | 0.0 | 0.00 | 0.00 | 0.00 | 48 | 1015.2 |
| 20260504022901 | 46 | 260 | 0.0 | 0.0 | 0.00 | 0.00 | 0.00 | 47 | 1015.2 |
| 20260504022151 | 46 | 260 | 0.0 | 0.0 | 0.00 | 0.00 | 0.00 | 47 | 1015.2 |
| 20260504021848 | 46 | 260 | 0.0 | 0.0 | 0.00 | 0.00 | 0.00 | 46 | 1015.1 |
| 20260504021545 | 47 | 260 | 0.0 | 0.0 | 0.00 | 0.00 | 0.00 | 46 | 1015.1 |
| 20260504021240 | 47 | 260 | 0.0 | 0.0 | 0.00 | 0.00 | 0.00 | 45 | 1015.1 |
| 20260504020937 | 47 | 260 | 0.0 | 0.0 | 0.00 | 0.00 | 0.00 | 44 | 1015.1 |
| 20260504020628 | 47 | 260 | 0.0 | 0.0 | 0.00 | 0.00 | 0.00 | 44 | 1015.0 |
| 20260504020326 | 47 | 260 | 0.0 | 0.0 | 0.00 | 0.00 | 0.00 | 44 | 1015.2 |
| 20260504020025 | 47 | 260 | 0.0 | 0.0 | 0.00 | 0.00 | 0.00 | 43 | 1015.1 |
| 20260504015721 | 48 | 260 | 0.0 | 0.0 | 0.00 | 0.00 | 0.00 | 45 | 1015.1 |
| 20260504015414 | 48 | 260 | 0.0 | 0.0 | 0.00 | 0.00 | 0.00 | 44 | 1015.1 |
| 20260504015102 | 48 | 260 | 0.0 | 0.0 | 0.00 | 0.00 | 0.00 | 43 | 1015.2 |
| 20260504014342 | 49 | 260 | 0.0 | 0.0 | 0.00 | 0.00 | 0.00 | 42 | 1015.1 |
| 20260504014031 | 49 | 260 | 0.0 | 0.0 | 0.00 | 0.00 | 0.00 | 41 | 1015.0 |
| 20260504013730 | 49 | 260 | 0.0 | 0.0 | 0.00 | 0.00 | 0.00 | 40 | 1015.0 |
| 20260504013428 | 49 | 260 | 0.0 | 0.0 | 0.00 | 0.00 | 0.00 | 40 | 1015.1 |
| 20260504013115 | 49 | 260 | 0.0 | 0.0 | 0.00 | 0.00 | 0.00 | 41 | 1015.0 |
| 20260504012806 | 50 | 260 | 0.0 | 0.0 | 0.00 | 0.00 | 0.00 | 40 | 1015.2 |
| 20260504012500 | 50 | 260 | 0.0 | 0.0 | 0.00 | 0.00 | 0.00 | 38 | 1015.1 |
| 20260504012148 | 50 | 260 | 0.0 | 0.0 | 0.00 | 0.00 | 0.00 | 38 | 1015.0 |
| 20260504011846 | 50 | 260 | 0.0 | 0.0 | 0.00 | 0.00 | 0.00 | 38 | 1015.0 |
| 20260504011117 | 51 | 260 | 0.0 | 0.0 | 0.00 | 0.00 | 0.00 | 38 | 1015.0 |
| 20260504010352 | 51 | 260 | 0.0 | 0.0 | 0.00 | 0.00 | 0.00 | 37 | 1014.9 |
| 20260504010048 | 52 | 260 | 0.0 | 0.0 | 0.00 | 0.00 | 0.00 | 37 | 1014.9 |
| 20260504005750 | 52 | 260 | 0.0 | 0.0 | 0.00 | 0.00 | 0.00 | 36 | 1014.9 |
| 20260504005029 | 53 | 261 | 0.0 | 0.0 | 0.00 | 0.00 | 0.00 | 36 | 1014.8 |
| 20260504004729 | 53 | 262 | 0.0 | 0.0 | 0.00 | 0.00 | 0.00 | 35 | 1014.7 |
| 20260504004427 | 53 | 262 | 0.0 | 0.0 | 0.00 | 0.00 | 0.00 | 36 | 1014.7 |
| 20260504004117 | 53 | 262 | 0.0 | 0.0 | 0.00 | 0.00 | 0.00 | 34 | 1014.7 |
| 20260504003804 | 54 | 262 | 0.0 | 0.0 | 0.00 | 0.00 | 0.00 | 33 | 1014.7 |
| 20260504003505 | 54 | 262 | 0.0 | 0.0 | 0.00 | 0.00 | 0.00 | 32 | 1014.9 |
| 20260504002732 | 55 | 292 | 0.0 | 0.0 | 0.00 | 0.00 | 0.00 | 31 | 1014.8 |
| 20260504002420 | 55 | 292 | 0.0 | 0.0 | 0.00 | 0.00 | 0.00 | 31 | 1014.7 |
| 20260504001702 | 55 | 317 | 0.0 | 2.6 | 0.00 | 0.00 | 0.00 | 29 | 1014.5 |
| 20260504000938 | 56 | 326 | 0.0 | 0.9 | 0.00 | 0.00 | 0.00 | 28 | 1014.5 |
| 20260504000222 | 57 | 263 | 0.0 | 2.6 | 0.00 | 0.00 | 0.00 | 28 | 1014.5 |
| 20260503235919 | 57 | 292 | 0.0 | 1.7 | 0.00 | 0.00 | 0.00 | 27 | 1014.5 |
| 20260503235158 | 57 | 271 | 0.0 | 7.0 | 0.00 | 0.00 | 0.00 | 27 | 1014.4 |
| 20260503234850 | 57 | 305 | 0.0 | 7.0 | 0.00 | 0.00 | 0.00 | 26 | 1014.4 |
| 20260503234125 | 58 | 273 | 1.7 | 7.0 | 0.00 | 0.00 | 0.00 | 25 | 1014.3 |
| 20260503233823 | 58 | 223 | 1.7 | 7.0 | 0.00 | 0.00 | 0.00 | 26 | 1014.4 |
| 20260503233056 | 58 | 275 | 1.7 | 6.1 | 0.00 | 0.00 | 0.00 | 26 | 1014.1 |
| 20260503232745 | 58 | 281 | 0.9 | 6.1 | 0.00 | 0.00 | 0.00 | 25 | 1014.1 |
| 20260503232025 | 59 | 269 | 1.7 | 6.1 | 0.00 | 0.00 | 0.00 | 24 | 1014.2 |
| 20260503231726 | 59 | 319 | 1.7 | 6.1 | 0.00 | 0.00 | 0.00 | 25 | 1014.1 |
| 20260503230957 | 59 | 321 | 0.9 | 8.7 | 0.00 | 0.00 | 0.00 | 25 | 1014.1 |
| 20260503230655 | 59 | 324 | 0.9 | 8.7 | 0.00 | 0.00 | 0.00 | 24 | 1014.1 |
| 20260503230342 | 59 | 281 | 0.9 | 8.7 | 0.00 | 0.00 | 0.00 | 25 | 1014.1 |
| 20260503230041 | 59 | 270 | 1.7 | 8.7 | 0.00 | 0.00 | 0.00 | 26 | 1014.1 |
| 20260503225736 | 60 | 348 | 1.7 | 8.7 | 0.00 | 0.00 | 0.00 | 23 | 1014.1 |
| 20260503225428 | 60 | 336 | 2.6 | 8.7 | 0.00 | 0.00 | 0.00 | 23 | 1014.1 |
| 20260503225116 | 60 | 291 | 2.6 | 8.7 | 0.00 | 0.00 | 0.00 | 24 | 1014.1 |
| 20260503224814 | 60 | 279 | 2.6 | 8.7 | 0.00 | 0.00 | 0.00 | 22 | 1014.1 |
| 20260503224047 | 60 | 286 | 2.6 | 9.6 | 0.00 | 0.00 | 0.00 | 22 | 1014.1 |
| 20260503223311 | 60 | 277 | 2.6 | 13.0 | 0.00 | 0.00 | 0.00 | 22 | 1014.1 |
| 20260503223001 | 60 | 20 | 3.5 | 13.0 | 0.00 | 0.00 | 0.00 | 24 | 1014.1 |
| 20260503222242 | 60 | 284 | 4.3 | 13.0 | 0.00 | 0.00 | 0.00 | 21 | 1014.2 |
| 20260503221930 | 60 | 290 | 4.3 | 13.0 | 0.00 | 0.00 | 0.00 | 21 | 1014.1 |
| 20260503221618 | 60 | 292 | 3.5 | 13.0 | 0.00 | 0.00 | 0.00 | 21 | 1014.1 |